VE2JOS Weather Reports


time (UTC)temp
F
wind
direction
speed
knots
gust
knots
rain 1hr
in
rain 24hr
in
rain mn
in
humidity
%
barometer
mb
20260507065523 45 231 0.9 3.5 0.00 0.26 0.00 89
20260507064524 45 257 0.9 1.7 0.00 0.26 0.00 89
20260507063523 45 239 0.9 2.6 0.00 0.26 0.00 88
20260507062524 45 248 0.9 3.5 0.00 0.26 0.00 88
20260507061524 45 243 0.9 3.5 0.00 0.26 0.00 88
20260507060524 45 249 0.9 4.3 0.00 0.26 0.00 88
20260507055524 45 244 0.9 3.5 0.00 0.26 0.00 87
20260507054523 45 244 0.9 3.5 0.00 0.26 0.00 87
20260507053524 45 241 0.9 2.6 0.00 0.26 0.00 88
20260507052543 45 251 0.9 2.6 0.00 0.26 0.00 88
20260507051523 45 242 0.9 2.6 0.00 0.26 0.00 87
20260507050524 46 250 0.9 4.3 0.00 0.26 0.00 86
20260507045523 46 258 0.0 1.7 0.00 0.26 0.00 87
20260507044524 46 243 0.9 4.3 0.00 0.26 0.00 86
20260507043523 46 223 0.9 4.3 0.00 0.26 0.00 86
20260507042523 46 251 0.9 2.6 0.00 0.26 0.00 86
20260507041523 46 243 0.9 3.5 0.00 0.26 0.00 87
20260507040523 46 250 0.9 2.6 0.00 0.26 0.00 87
20260507035523 46 242 0.0 0.9 0.00 0.26 0.26 87
20260507034523 46 225 0.9 1.7 0.00 0.26 0.26 86
20260507033523 46 250 0.9 1.7 0.00 0.26 0.26 86
20260507032523 46 235 0.0 1.7 0.00 0.26 0.26 86
20260507031523 46 239 0.9 3.5 0.00 0.26 0.26 86
20260507030523 46 211 0.0 1.7 0.00 0.26 0.26 86
20260507025523 46 248 0.0 2.6 0.00 0.26 0.26 86
20260507024523 46 250 0.9 2.6 0.00 0.26 0.26 86
20260507023523 46 246 0.0 1.7 0.00 0.26 0.26 86
20260507022523 46 242 0.9 3.5 0.00 0.26 0.26 86
20260507021523 46 248 0.9 1.7 0.00 0.26 0.26 88
20260507020523 46 251 0.0 1.7 0.00 0.26 0.26 87
20260507015543 46 0.0 0.0 0.00 0.26 0.26 88
20260507014523 46 248 0.0 0.9 0.00 0.26 0.26 87
20260507013523 46 0.0 0.9 0.00 0.26 0.26 87
20260507012523 46 243 0.0 0.9 0.00 0.26 0.26 88
20260507011523 47 241 0.0 0.9 0.00 0.26 0.26 87
20260507010523 47 228 0.9 1.7 0.00 0.26 0.26 85
20260507005523 47 236 0.9 1.7 0.00 0.26 0.26 85
20260507004543 47 206 0.9 2.6 0.00 0.26 0.26 85
20260507003523 47 244 0.0 0.9 0.00 0.26 0.26 85
20260507002523 47 231 0.9 1.7 0.00 0.26 0.26 85
20260507001523 47 226 0.9 1.7 0.00 0.26 0.26 85
20260507000523 48 230 0.0 2.6 0.00 0.26 0.26 86
20260506235523 48 202 0.9 2.6 0.00 0.26 0.26 86
20260506234523 48 227 0.0 1.7 0.00 0.26 0.26 85
20260506233543 48 246 0.0 0.9 0.00 0.26 0.26 85
20260506232523 48 235 0.9 1.7 0.00 0.26 0.26 84
20260506231523 48 236 0.0 1.7 0.00 0.27 0.26 84
20260506230523 48 242 0.0 0.9 0.00 0.27 0.26 83
20260506225523 48 238 0.9 1.7 0.00 0.27 0.26 81
20260506224523 49 252 0.0 0.0 0.00 0.27 0.26 81
20260506223523 49 257 0.0 1.7 0.00 0.27 0.26 81
20260506222523 49 228 0.9 1.7 0.00 0.27 0.26 79
20260506221523 49 262 0.0 1.7 0.00 0.27 0.26 78
20260506220543 49 241 0.9 1.7 0.00 0.27 0.26 79
20260506215523 49 218 0.0 2.6 0.00 0.27 0.26 80
20260506214523 49 223 0.9 1.7 0.00 0.27 0.26 80
20260506213523 49 205 0.9 2.6 0.00 0.27 0.26 80
20260506212523 49 251 0.0 0.9 0.00 0.27 0.26 81
20260506211523 49 238 0.0 0.9 0.00 0.27 0.26 79
20260506210523 49 222 0.9 2.6 0.00 0.27 0.26 79
20260506205523 49 236 0.9 1.7 0.00 0.27 0.26 79
20260506204523 49 259 0.9 1.7 0.00 0.27 0.26 80
20260506203523 49 269 0.0 0.9 0.00 0.27 0.26 80
20260506202543 49 246 0.0 1.7 0.00 0.27 0.26 80
20260506201523 49 199 0.9 2.6 0.00 0.28 0.26 79
20260506200523 49 207 0.9 2.6 0.00 0.28 0.26 78
20260506195523 49 237 0.9 2.6 0.00 0.28 0.26 80
20260506194523 49 226 0.9 1.7 0.00 0.28 0.26 80
20260506193523 49 242 0.0 1.7 0.00 0.28 0.26 79
20260506192523 49 328 0.0 1.7 0.00 0.28 0.26 80
20260506191522 48 274 0.9 2.6 0.00 0.28 0.26 80
20260506190523 49 262 0.9 1.7 0.00 0.28 0.26 81
20260506185523 49 254 0.0 1.7 0.00 0.28 0.26 84
20260506184523 48 262 0.9 2.6 0.00 0.28 0.26 84
20260506183523 49 265 0.9 1.7 0.00 0.28 0.26 83
20260506182522 49 231 0.0 1.7 0.00 0.28 0.26 81
20260506181523 49 232 0.0 1.7 0.00 0.28 0.26 81
20260506180523 49 238 0.9 1.7 0.00 0.28 0.26 81
20260506175543 49 239 0.9 2.6 0.00 0.28 0.26 83
20260506174523 48 213 0.9 3.5 0.00 0.28 0.26 86
20260506173523 47 219 0.9 4.3 0.00 0.28 0.26 87
20260506172523 46 188 1.7 4.3 0.00 0.28 0.26 88
20260506171523 45 206 1.7 4.3 0.01 0.28 0.26 88
20260506170523 46 212 0.9 3.5 0.02 0.28 0.26 89
20260506165523 46 199 1.7 2.6 0.03 0.28 0.26 91
20260506164603 46 254 0.9 1.7 0.04 0.28 0.26 93
20260506163523 46 249 0.0 1.7 0.04 0.28 0.26 94
20260506162523 45 224 0.9 2.6 0.04 0.28 0.26 93
20260506161543 44 199 1.7 3.5 0.03 0.27 0.25 93
20260506160523 45 209 1.7 3.5 0.03 0.26 0.24 93
20260506155523 45 232 0.9 2.6 0.02 0.26 0.23 94
20260506154523 45 219 0.9 3.5 0.02 0.26 0.22 92
20260506153523 45 214 0.9 3.5 0.02 0.26 0.22 91
20260506152523 46 206 0.9 2.6 0.04 0.26 0.22 92
20260506151522 46 250 0.0 1.7 0.07 0.26 0.22 93
20260506150523 45 252 0.0 0.9 0.08 0.25 0.21 91
20260506145522 45 246 0.0 0.9 0.10 0.25 0.21 90
20260506144523 45 262 0.0 0.9 0.10 0.26 0.20 91
20260506143522 45 215 0.9 3.5 0.11 0.26 0.20 87
20260506142523 45 225 0.9 4.3 0.09 0.24 0.18 92
20260506141522 45 213 0.9 2.6 0.06 0.20 0.15 93
20260506140523 45 230 1.7 2.6 0.05 0.18 0.13 92
20260506135522 46 220 0.9 2.6 0.05 0.17 0.11 94
20260506134522 46 209 0.9 2.6 0.04 0.16 0.10 94
20260506133522 46 203 1.7 2.6 0.03 0.15 0.09 93
20260506132522 46 238 0.9 1.7 0.04 0.15 0.09 93
20260506131523 46 238 0.0 1.7 0.04 0.15 0.09 93
20260506130522 46 201 0.9 3.5 0.03 0.14 0.08 91
20260506125523 46 242 0.0 0.9 0.01 0.12 0.06 92
20260506124522 46 252 0.0 1.7 0.02 0.12 0.06 91
20260506123522 46 223 0.9 2.6 0.03 0.12 0.06 90
20260506122522 46 210 0.9 2.6 0.03 0.11 0.06 90
20260506121522 46 215 0.9 1.7 0.03 0.11 0.06 90
20260506120544 46 226 0.9 3.5 0.04 0.11 0.06 90
20260506115542 46 192 1.7 3.5 0.04 0.11 0.06 89
20260506114522 46 214 0.9 3.5 0.04 0.10 0.05 88
20260506113522 46 228 0.9 2.6 0.03 0.09 0.04 88
20260506112523 46 205 0.9 3.5 0.03 0.08 0.03 85
20260506111523 47 207 1.7 4.3 0.03 0.08 0.03 82
20260506110523 47 183 0.9 4.3 0.02 0.07 0.02 79
20260506105522 47 219 0.9 2.6 0.02 0.07 0.02 81
20260506104523 48 167 2.6 6.1 0.01 0.06 0.01 77
20260506103523 48 223 0.9 2.6 0.01 0.06 0.01 77
20260506102522 49 251 0.0 1.7 0.00 0.06 0.00 75
20260506101523 49 307 0.0 0.0 0.00 0.06 0.00 75
20260506100523 49 257 0.0 1.7 0.00 0.06 0.00 71
20260506095523 50 249 0.0 3.5 0.00 0.06 0.00 71
20260506094522 50 263 0.9 2.6 0.00 0.06 0.00 71
20260506093522 50 249 0.0 1.7 0.00 0.06 0.00 68
20260506092523 50 249 0.0 1.7 0.00 0.06 0.00 81
20260506091522 50 248 0.0 0.9 0.00 0.06 0.00 84
20260506085523 51 248 0.0 0.9 0.00 0.06 0.00 83
20260506084523 51 249 0.0 1.7 0.00 0.06 0.00 83
20260506083522 51 238 0.9 1.7 0.00 0.06 0.00 82
20260506082522 51 245 0.0 1.7 0.00 0.06 0.00 82
20260506081523 51 242 0.9 2.6 0.00 0.06 0.00 81
20260506080522 51 254 0.0 1.7 0.00 0.06 0.00 81
20260506072523 52 248 0.9 1.7 0.00 0.06 0.00 81
20260506071522 52 246 0.9 2.6 0.00 0.06 0.00 81
20260506070522 52 243 0.9 3.5 0.00 0.06 0.00 81